This demonstration page uses our WeatherBlox Daily Observations layout. Learn more.

Left ArrowRight Arrow

39.08367, -84.50855

Hourly Observations for March 28, 2019

Temp ( °F °C ) Dew Point ( °F °C ) Humidity (%) Winds ( mph kmh ) Pressure ( in mb ) Visibility ( mi km ) Precip ( " mm )
12:53 am 00:53 Clear 40 4.4 32 undefined 73 73 N N/A 30.23 1024 10 16 N/A
1:53 am 01:53 Clear 38 3.3 33 0.6 83 83 N N/A 30.23 1024 10 16 N/A
2:53 am 02:53 Clear 36 2.2 31 -0.6 82 82 N N/A 30.24 1024 10 16 N/A
3:53 am 03:53 Clear 34 1.1 31 -0.6 89 89 N N/A 30.23 1024 10 16 N/A
4:53 am 04:53 Clear 34 1.1 32 undefined 92 92 N N/A 30.24 1024 10 16 N/A
5:53 am 05:53 Clear 34 1.1 31 -0.6 89 89 N N/A 30.25 1025 10 16 N/A
6:53 am 06:53 Clear 36 2.2 32 undefined 86 86 N N/A 30.26 1025 10 16 N/A
7:53 am 07:53 Sunny 37 2.8 32 undefined 82 82 WSW 3 6 30.25 1025 10 16 N/A
8:53 am 08:53 Mostly Cloudy 41 5 36 2.2 82 82 N N/A 30.26 1025 10 16 N/A
9:53 am 09:53 Cloudy 46 7.8 37 2.8 71 71 SW 3 6 30.25 1024 10 16 N/A
10:53 am 10:53 Cloudy 52 11.1 37 2.8 57 57 SSW 6 9 30.24 1024 10 16 N/A
11:53 am 11:53 Cloudy 53 11.7 42 5.6 66 66 SW 3 6 30.22 1023 10 16 0.01 0.25
12:53 pm 12:53 Cloudy 61 16.1 39 3.9 44 44 SSW 15 24 30.19 1022 10 16 N/A
1:53 pm 13:53 Mostly Cloudy 64 17.8 36 2.2 35 35 SSW 21 33 30.16 1021 10 16 N/A
2:53 pm 14:53 Partly Cloudy 69 20.6 40 4.4 35 35 SSW 16 26 30.12 1020 10 16 N/A
3:53 pm 15:53 Sunny 70 21.1 40 4.4 34 34 SW 18 30 30.10 1019 10 16 N/A
4:53 pm 16:53 Mostly Cloudy 70 21.1 41 5 35 35 SSW 15 24 30.08 1019 10 16 N/A
5:53 pm 17:53 Mostly Cloudy 69 20.6 40 4.4 35 35 SW 21 33 30.08 1019 10 16 N/A
6:53 pm 18:53 Partly Cloudy 68 20 40 4.4 36 36 SW 14 22 30.08 1019 10 16 N/A
7:53 pm 19:53 Mostly Cloudy 64 17.8 42 5.6 45 45 SSW 10 17 30.08 1019 10 16 N/A
8:53 pm 20:53 Mostly Cloudy 64 17.8 42 5.6 45 45 SSW 10 17 30.09 1019 10 16 N/A
9:53 pm 21:53 Mostly Clear 57 13.9 42 5.6 58 58 SSW 9 15 30.09 1019 10 16 N/A
10:53 pm 22:53 Partly Cloudy 57 13.9 42 5.6 58 58 SSW 9 15 30.09 1019 10 16 N/A
11:53 pm 23:53 Partly Cloudy 57 13.9 42 5.6 58 58 SSW 8 13 30.09 1019 10 16 N/A

Powered by AerisWeather